TimeCDT,TemperatureF,Dew PointF,Humidity,Sea Level PressureIn,VisibilityMPH,Wind Direction,Wind SpeedMPH,Gust SpeedMPH,PrecipitationIn,Events,Conditions,WindDirDegrees,DateUTC
12:15 AM,77.4,72.1,84,29.62,7.0,SW,10.4,25.3,0.07,Rain,Light Rain,230,2013-07-19 05:15:00
12:35 AM,77.5,71.8,82,29.63,10.0,West,9.2,-,0.07,,Scattered Clouds,270,2013-07-19 05:35:00
12:55 AM,75.4,72.3,90,29.65,10.0,North,8.1,-,0.07,,Overcast,350,2013-07-19 05:55:00
1:15 AM,74.1,68.4,82,29.66,10.0,North,11.5,23.0,N/A,,Overcast,350,2013-07-19 06:15:00
1:35 AM,73.4,68.4,84,29.66,10.0,NW,4.6,-,N/A,,Overcast,310,2013-07-19 06:35:00
1:55 AM,73.4,68.5,85,29.65,10.0,West,4.6,-,N/A,,Scattered Clouds,270,2013-07-19 06:55:00
2:15 AM,72.5,68.5,87,29.64,10.0,West,5.8,-,N/A,,Clear,270,2013-07-19 07:15:00
2:35 AM,72.5,68.5,87,29.64,10.0,West,5.8,-,N/A,,Clear,260,2013-07-19 07:35:00
2:55 AM,72.3,68.5,88,29.64,10.0,West,5.8,-,N/A,,Clear,280,2013-07-19 07:55:00
3:15 AM,72.5,68.9,88,29.63,10.0,West,4.6,-,N/A,,Scattered Clouds,260,2013-07-19 08:15:00
3:35 AM,72.1,68.5,88,29.62,10.0,WSW,5.8,-,N/A,,Clear,240,2013-07-19 08:35:00
3:55 AM,70.7,68.0,91,29.63,10.0,SW,4.6,-,N/A,,Clear,220,2013-07-19 08:55:00
4:15 AM,70.9,68.4,92,29.62,10.0,SW,5.8,-,N/A,,Clear,220,2013-07-19 09:15:00
4:35 AM,71.8,69.1,91,29.62,10.0,SW,6.9,-,N/A,,Clear,230,2013-07-19 09:35:00
4:55 AM,71.1,68.9,93,29.62,10.0,SW,5.8,-,N/A,,Clear,230,2013-07-19 09:55:00
5:15 AM,71.2,69.1,93,29.63,10.0,WSW,3.5,-,N/A,,Scattered Clouds,240,2013-07-19 10:15:00
5:35 AM,70.0,68.2,94,29.64,10.0,Calm,Calm,-,N/A,,Scattered Clouds,0,2013-07-19 10:35:00
5:55 AM,69.8,68.7,96,29.64,10.0,WSW,3.5,-,N/A,,Clear,250,2013-07-19 10:55:00
6:15 AM,70.9,69.3,95,29.65,10.0,West,5.8,-,N/A,,Clear,260,2013-07-19 11:15:00
6:35 AM,72.3,69.8,92,29.66,10.0,West,5.8,-,N/A,,Clear,270,2013-07-19 11:35:00
6:55 AM,73.4,69.8,88,29.66,10.0,West,9.2,-,N/A,,Clear,280,2013-07-19 11:55:00
7:15 AM,74.5,68.9,83,29.68,10.0,WNW,12.7,17.3,N/A,,Mostly Cloudy,300,2013-07-19 12:15:00
7:35 AM,74.7,68.5,81,29.69,10.0,WNW,9.2,-,N/A,,Mostly Cloudy,300,2013-07-19 12:35:00
7:55 AM,73.9,68.0,82,29.69,10.0,NW,11.5,-,N/A,,Mostly Cloudy,310,2013-07-19 12:55:00
8:15 AM,73.4,66.6,79,29.71,10.0,NW,11.5,17.3,N/A,,Overcast,320,2013-07-19 13:15:00
8:35 AM,73.4,64.8,74,29.72,10.0,NW,18.4,23.0,N/A,,Mostly Cloudy,320,2013-07-19 13:35:00
8:55 AM,73.0,64.6,75,29.74,10.0,NNW,15.0,21.9,N/A,,Scattered Clouds,330,2013-07-19 13:55:00
9:15 AM,72.9,62.6,70,29.75,10.0,WNW,18.4,25.3,N/A,,Scattered Clouds,300,2013-07-19 14:15:00
9:35 AM,73.2,62.6,69,29.76,10.0,NW,15.0,-,N/A,,Clear,310,2013-07-19 14:35:00
9:55 AM,73.4,61.9,67,29.77,10.0,NW,13.8,24.2,N/A,,Clear,320,2013-07-19 14:55:00
10:15 AM,73.4,62.1,68,29.78,10.0,NW,16.1,23.0,N/A,,Scattered Clouds,320,2013-07-19 15:15:00
10:35 AM,74.3,61.5,64,29.78,10.0,NNW,15.0,21.9,N/A,,Scattered Clouds,340,2013-07-19 15:35:00
10:55 AM,75.0,62.1,64,29.78,10.0,NW,13.8,-,N/A,,Scattered Clouds,310,2013-07-19 15:55:00
11:15 AM,75.0,62.1,64,29.79,10.0,WNW,10.4,-,N/A,,Scattered Clouds,300,2013-07-19 16:15:00
11:35 AM,76.1,61.2,60,29.79,10.0,NW,15.0,18.4,N/A,,Scattered Clouds,320,2013-07-19 16:35:00
11:55 AM,76.6,61.3,59,29.79,10.0,NNW,12.7,20.7,N/A,,Scattered Clouds,330,2013-07-19 16:55:00
12:15 PM,77.2,61.5,58,29.79,10.0,NW,16.1,23.0,N/A,,Scattered Clouds,320,2013-07-19 17:15:00
12:35 PM,77.7,60.3,55,29.79,10.0,NW,17.3,21.9,N/A,,Scattered Clouds,320,2013-07-19 17:35:00
12:55 PM,78.1,60.6,55,29.79,10.0,WNW,16.1,19.6,N/A,,Mostly Cloudy,300,2013-07-19 17:55:00
1:15 PM,78.4,58.8,51,29.79,10.0,WNW,13.8,-,N/A,,Scattered Clouds,300,2013-07-19 18:15:00
1:35 PM,78.6,60.6,54,29.79,10.0,West,10.4,17.3,N/A,,Scattered Clouds,280,2013-07-19 18:35:00
1:55 PM,79.2,57.6,47,29.79,10.0,NW,13.8,-,N/A,,Scattered Clouds,310,2013-07-19 18:55:00
2:15 PM,79.7,57.7,47,29.79,10.0,WNW,16.1,20.7,N/A,,Clear,300,2013-07-19 19:15:00
2:35 PM,79.9,58.1,47,29.79,10.0,NW,11.5,23.0,N/A,,Scattered Clouds,320,2013-07-19 19:35:00
2:55 PM,79.3,56.8,46,29.79,10.0,WNW,13.8,24.2,N/A,,Scattered Clouds,290,2013-07-19 19:55:00
3:15 PM,79.7,55.0,43,29.80,10.0,NW,15.0,24.2,N/A,,Clear,310,2013-07-19 20:15:00
3:35 PM,79.9,54.0,41,29.80,10.0,WNW,13.8,21.9,N/A,,Scattered Clouds,300,2013-07-19 20:35:00
3:55 PM,80.4,55.6,42,29.80,10.0,NW,13.8,23.0,N/A,,Clear,320,2013-07-19 20:55:00
4:15 PM,80.6,54.1,40,29.80,10.0,WNW,17.3,24.2,N/A,,Scattered Clouds,290,2013-07-19 21:15:00
4:35 PM,79.5,55.4,43,29.79,10.0,NW,11.5,20.7,N/A,,Scattered Clouds,320,2013-07-19 21:35:00
4:55 PM,79.5,54.3,42,29.79,10.0,WNW,11.5,23.0,N/A,,Clear,300,2013-07-19 21:55:00
5:15 PM,78.8,55.2,44,29.79,10.0,NW,15.0,-,N/A,,Clear,310,2013-07-19 22:15:00
5:35 PM,79.3,55.6,44,29.79,10.0,West,12.7,17.3,N/A,,Clear,280,2013-07-19 22:35:00
5:55 PM,79.0,55.6,44,29.79,10.0,West,11.5,19.6,N/A,,Clear,280,2013-07-19 22:55:00
6:15 PM,78.8,55.0,44,29.78,10.0,WNW,12.7,-,N/A,,Clear,300,2013-07-19 23:15:00
6:35 PM,78.6,54.7,43,29.78,10.0,WNW,12.7,-,N/A,,Clear,290,2013-07-19 23:35:00
6:55 PM,78.1,54.3,44,29.78,10.0,WNW,10.4,-,N/A,,Clear,290,2013-07-19 23:55:00
7:15 PM,77.4,55.4,47,29.77,10.0,West,10.4,-,N/A,,Clear,280,2013-07-20 00:15:00
7:35 PM,77.0,56.5,49,29.78,10.0,West,9.2,-,N/A,,Clear,270,2013-07-20 00:35:00
7:55 PM,74.7,57.4,55,29.78,10.0,West,5.8,-,N/A,,Clear,260,2013-07-20 00:55:00
8:15 PM,73.2,57.9,59,29.78,10.0,WSW,4.6,-,N/A,,Scattered Clouds,250,2013-07-20 01:15:00
8:35 PM,73.0,58.5,60,29.77,10.0,WSW,5.8,-,N/A,,Overcast,250,2013-07-20 01:35:00
8:55 PM,72.3,58.1,61,29.78,10.0,WSW,5.8,-,N/A,,Mostly Cloudy,250,2013-07-20 01:55:00
9:15 PM,72.1,58.3,62,29.79,10.0,West,8.1,-,N/A,,Scattered Clouds,280,2013-07-20 02:15:00
9:35 PM,71.8,57.6,61,29.80,10.0,WNW,8.1,-,N/A,,Clear,290,2013-07-20 02:35:00
9:55 PM,71.4,57.6,62,29.81,10.0,WNW,8.1,-,N/A,,Clear,290,2013-07-20 02:55:00
10:15 PM,69.6,57.7,66,29.81,10.0,WNW,6.9,-,N/A,,Clear,290,2013-07-20 03:15:00
10:35 PM,68.4,57.7,69,29.81,10.0,WNW,5.8,-,N/A,,Clear,290,2013-07-20 03:35:00
10:55 PM,68.2,57.6,69,29.81,10.0,WNW,5.8,-,N/A,,Clear,300,2013-07-20 03:55:00
11:15 PM,67.1,58.1,73,29.82,10.0,West,5.8,-,N/A,,Clear,280,2013-07-20 04:15:00
11:35 PM,66.2,58.3,76,29.83,10.0,West,6.9,-,N/A,,Clear,280,2013-07-20 04:35:00
11:55 PM,64.0,57.6,79,29.83,10.0,West,3.5,-,N/A,,Clear,280,2013-07-20 04:55:00